Wind_Speed
28 30 32 32 33 35 36 38 38 38 39 40 41 43 44 44 45 46 45 46 48 49 48 48 49 47 48 48 48 49 52 52 57 61 59 58 56 54 47 41 34 34 35
33 34 35 36 37 39 39 39 40 41 41 41 40 41 42 43 43 43 43 43 45 47 49 51 51 51 50 50 49 50 53 54 54 58 57 54 55 50 46 44 40 35 36
36 36 38 41 43 44 45 45 44 43 42 39 38 39 40 40 41 41 42 43 43 44 46 48 49 48 48 48 49 50 49 49 52 54 57 54 52 54 50 49 44 43 44
42 43 45 47 46 46 44 43 43 43 43 42 41 39 37 36 36 38 40 42 44 46 47 47 46 44 45 46 47 48 49 50 50 52 54 54 55 57 56 54 50 50 48
46 47 50 50 49 47 46 45 44 44 43 42 41 40 39 37 36 35 35 39 41 43 44 45 43 43 44 44 44 45 47 50 51 51 53 53 52 58 64 54 46 53 56
51 52 48 45 44 43 42 42 43 42 43 43 43 44 44 43 41 37 36 41 42 43 42 43 42 41 41 42 44 43 45 47 50 52 52 54 54 60 48 43 53 66 60
51 46 44 42 42 41 41 42 43 44 46 46 46 47 47 46 42 38 36 40 43 41 40 40 40 40 40 41 42 44 46 47 49 51 55 54 53 50 52 53 60 55 46
44 43 41 40 40 42 43 45 46 48 48 49 50 49 48 46 39 34 34 40 43 43 41 39 40 40 40 42 42 43 43 46 49 49 51 54 53 52 48 54 56 48 53
41 39 39 40 42 44 46 47 49 51 51 52 53 52 50 46 37 38 38 41 43 43 41 39 40 41 40 41 43 44 45 45 44 47 46 49 46 49 50 51 56 55 52
37 37 39 42 44 46 48 49 50 52 53 55 55 52 49 46 43 43 40 41 43 44 43 39 39 40 40 39 41 44 46 42 42 42 42 43 39 40 45 39 46 51 44
36 38 41 43 45 46 47 49 52 54 55 55 55 53 50 45 44 40 37 40 41 44 45 43 40 38 39 39 37 39 41 43 43 40 39 37 36 37 31 35 45 42 35
38 40 43 45 46 47 49 51 53 54 55 55 53 52 49 46 41 39 37 35 36 40 42 41 38 37 38 38 36 34 39 41 41 39 39 37 35 38 38 37 38 38 34
41 44 46 48 48 49 51 52 54 54 53 52 50 49 47 44 40 36 34 34 35 37 37 36 33 35 37 35 33 32 33 36 38 37 38 37 35 36 34 29 29 29 26
46 48 49 50 50 50 51 53 54 53 50 48 46 46 45 41 37 33 33 34 34 33 33 30 29 30 32 33 32 31 30 32 32 35 39 38 33 30 20 21 17 13 19
48 49 49 49 50 50 50 52 52 48 44 44 42 42 42 39 35 32 32 35 35 35 32 29 28 29 30 31 30 31 28 33 30 30 35 31 32 26 20 16 11 12 11
48 48 49 50 51 52 53 53 48 43 39 37 36 37 37 35 33 31 32 32 33 32 30 29 29 27 29 31 31 32 29 31 26 26 26 26 26 24 16 12 11 11 13
49 49 49 50 50 51 51 50 49 41 34 34 34 33 34 34 31 30 31 31 30 29 27 28 28 25 26 28 30 34 32 27 23 21 21 17 16 12 8 7 11 13 7
48 47 48 48 50 51 50 47 43 41 41 37 32 34 34 33 30 29 30 29 29 25 25 27 26 23 23 27 28 33 30 25 19 14 11 13 6 7 14 15 14 9 8
48 48 48 50 51 49 45 41 39 38 38 39 38 35 35 33 29 26 27 28 27 24 24 26 22 21 21 24 26 31 28 26 17 10 6 5 19 21 20 14 10 9 7
48 48 49 50 49 46 41 38 37 38 39 40 39 38 37 34 29 25 26 26 24 23 23 25 21 18 20 22 25 29 27 25 17 7 12 21 22 20 15 11 10 8 6
49 49 49 48 45 41 38 37 37 39 41 41 40 37 34 33 30 25 26 24 23 23 23 23 19 16 18 20 24 27 26 24 13 11 23 26 21 16 15 13 11 9 7
50 49 48 45 42 38 37 37 39 40 39 39 39 37 34 31 28 24 23 21 21 22 23 22 18 16 17 20 24 26 24 19 1 20 27 22 17 18 16 14 12 9 8
49 47 45 41 37 36 38 39 40 40 39 38 38 36 33 31 26 23 22 19 19 20 20 19 16 13 15 18 22 23 20 5 17 25 24 21 21 19 17 15 12 11 10
46 42 39 38 38 39 40 40 40 39 38 37 36 33 30 28 25 21 20 17 18 19 17 16 14 13 15 17 20 17 10 11 24 24 25 24 22 20 18 14 13 12 12
41 38 37 38 40 41 41 40 39 39 37 35 32 29 26 25 22 19 18 16 17 16 14 15 13 11 13 16 15 10 11 23 22 25 26 26 23 20 17 15 14 14 14
37 38 39 40 40 40 40 39 38 37 34 31 27 25 24 23 18 16 15 15 15 12 12 13 10 10 12 14 8 9 20 21 25 27 28 27 23 19 17 15 16 16 17
Wind_Direction
307 309 310 308 309 309 310 309 307 305 302 299 296 293 290 289 287 286 286 285 283 281 279 279 278 278 278 278 279 279 278 276 277 282 284 283 283 278 271 270 269 268 264
310 311 311 311 313 312 312 311 309 307 306 303 299 295 293 292 291 291 291 288 285 282 281 280 279 279 279 279 278 277 276 280 280 282 283 281 279 278 270 266 261 266 266
309 310 309 310 313 313 313 312 312 310 308 304 300 298 295 293 294 295 295 293 292 292 291 289 288 287 285 282 279 277 275 277 279 280 279 279 280 278 275 265 262 260 266
311 311 310 312 312 313 314 313 311 309 308 307 306 304 300 297 294 292 291 289 287 288 289 289 289 289 288 285 282 279 278 276 276 279 277 278 279 282 271 271 263 259 265
311 312 314 314 315 316 315 314 312 312 311 310 308 306 305 303 300 294 289 284 282 282 282 284 286 286 285 287 286 285 281 279 278 276 279 278 276 274 281 261 276 274 261
312 313 313 313 313 313 312 312 311 310 310 310 310 310 309 308 306 301 292 290 286 286 286 282 282 282 282 281 278 275 273 275 277 278 278 276 280 279 287 270 291 274 260
312 313 314 315 315 315 315 315 315 315 316 315 315 314 313 313 312 307 301 293 294 291 290 289 288 286 285 283 280 279 276 275 273 275 278 281 286 282 281 288 280 285 267
312 314 316 316 316 317 318 319 320 319 320 319 318 316 315 313 310 302 290 289 293 291 291 293 292 291 290 289 288 284 280 277 274 275 276 278 280 282 278 275 278 285 278
312 314 315 317 318 318 319 321 321 320 321 321 321 319 318 315 303 291 288 292 291 291 290 289 289 289 292 295 294 294 285 285 281 276 282 277 278 277 278 271 277 284 289
313 315 316 318 320 321 322 323 323 323 323 323 322 320 318 314 305 299 294 290 289 289 289 290 286 288 290 294 299 298 297 293 284 281 280 280 288 276 268 271 283 285 268
313 315 317 319 320 320 320 322 323 324 324 322 319 320 317 313 310 310 298 288 287 288 289 290 291 291 289 294 301 299 293 292 292 287 280 285 292 276 270 268 284 270 271
313 316 318 318 317 318 319 321 322 322 321 321 319 317 314 312 313 313 311 298 287 286 288 289 293 293 291 296 301 297 293 290 291 289 283 281 289 285 270 272 272 271 269
312 316 316 315 315 316 318 320 320 320 319 317 316 315 313 314 318 315 314 304 291 285 287 290 292 294 295 299 307 301 306 297 294 289 286 280 278 280 280 281 285 271 258
313 315 315 314 314 315 316 317 319 319 317 315 315 314 316 319 320 317 313 309 302 294 293 291 289 298 302 307 311 311 309 306 291 283 280 281 284 282 293 294 277 255 232
314 314 313 313 313 314 315 317 317 317 316 315 316 316 319 321 322 318 314 313 310 303 302 299 296 303 306 311 318 317 311 312 293 290 282 271 279 286 292 274 260 218 226
314 314 315 316 316 316 316 314 315 316 315 312 312 315 315 318 320 316 310 309 309 305 299 299 298 305 310 316 321 327 322 315 300 292 286 280 277 282 288 241 237 190 187
316 316 316 315 315 315 316 318 318 317 316 316 316 314 314 317 320 317 312 307 311 308 301 299 300 305 309 319 323 333 329 320 306 293 280 287 288 289 234 184 195 184 207
316 315 314 313 315 317 319 318 317 319 319 320 320 317 315 318 319 317 311 307 308 307 299 298 301 305 312 320 326 330 328 324 308 286 283 287 279 161 135 149 165 190 202
314 313 315 317 318 318 317 316 317 317 319 319 319 316 315 317 317 314 309 310 311 312 299 299 304 309 314 323 327 329 330 329 310 284 305 139 129 128 132 153 175 166 170
313 315 315 316 317 318 317 316 317 318 319 318 318 320 319 318 318 314 309 312 312 311 301 302 307 314 314 324 326 331 330 330 317 272 141 130 128 130 138 151 146 145 116
312 313 315 316 316 316 316 317 318 317 319 321 320 320 320 317 316 311 307 309 310 308 303 305 310 316 317 325 328 329 331 333 324 179 139 132 135 129 137 137 125 115 110
313 315 315 315 315 315 315 316 318 318 318 319 318 318 317 315 312 307 302 304 305 303 307 309 313 320 321 326 327 330 335 335 233 152 136 132 126 132 130 119 113 99 66
313 314 314 314 313 314 314 315 317 319 319 318 317 317 315 311 309 306 300 300 299 299 308 309 309 316 316 323 325 333 337 343 151 141 133 127 131 123 115 113 100 78 61
313 313 314 315 316 316 316 316 316 317 318 317 316 315 312 307 305 303 296 294 293 299 309 306 306 315 318 326 329 336 347 140 143 136 128 125 119 118 116 106 88 77 60
316 316 315 314 314 314 313 315 317 318 318 317 318 316 312 307 303 295 289 288 289 302 305 300 305 311 319 327 337 352 128 141 139 135 127 123 121 120 109 97 89 76 64
315 314 313 313 314 314 315 316 316 316 316 316 317 314 311 310 302 289 284 279 290 301 298 298 303 311 325 333 355 117 142 143 141 133 125 123 121 114 105 96 85 75 69
Height
3066 3063 3059 3056 3052 3048 3043 3039 3034 3029 3024 3019 3014 3009 3004 3000 2995 2991 2987 2983 2979 2974 2970 2966 2963 2962 2959 2956 2954 2950 2945 2943 2935 2930 2933 2935 2930 2929 2929 2929 2928 2927 2926
3059 3055 3051 3047 3043 3039 3035 3030 3025 3020 3015 3009 3004 2998 2993 2988 2983 2979 2973 2969 2963 2958 2954 2952 2950 2948 2945 2942 2939 2936 2932 2929 2925 2918 2918 2917 2914 2914 2914 2913 2913 2912 2913
3051 3047 3043 3038 3034 3029 3023 3018 3013 3007 3002 2997 2991 2986 2981 2976 2971 2968 2962 2956 2951 2946 2943 2939 2936 2933 2930 2928 2925 2921 2918 2915 2911 2906 2900 2902 2899 2896 2897 2897 2898 2898 2898
3043 3039 3033 3030 3024 3019 3013 3007 3001 2995 2989 2984 2980 2974 2969 2964 2960 2955 2949 2944 2939 2936 2932 2927 2923 2919 2914 2911 2908 2906 2903 2900 2898 2893 2888 2886 2885 2881 2881 2880 2881 2882 2883
3034 3029 3024 3018 3013 3007 3001 2995 2989 2983 2977 2972 2967 2963 2959 2953 2947 2942 2937 2931 2926 2921 2919 2915 2911 2907 2902 2898 2894 2891 2889 2885 2882 2878 2874 2873 2871 2865 2864 2858 2862 2866 2865
3024 3019 3013 3007 3001 2995 2989 2982 2976 2971 2965 2958 2953 2947 2943 2938 2933 2929 2922 2917 2914 2909 2905 2900 2897 2894 2890 2884 2880 2877 2874 2870 2868 2864 2859 2858 2856 2852 2841 2843 2848 2842 2840
3014 3008 3002 2996 2991 2984 2979 2972 2965 2959 2953 2946 2939 2933 2928 2922 2916 2912 2907 2901 2899 2895 2891 2886 2883 2879 2875 2869 2865 2862 2860 2857 2854 2851 2846 2845 2842 2843 2839 2835 2835 2831 2828
3004 2998 2993 2987 2981 2975 2969 2962 2954 2947 2941 2934 2927 2921 2916 2910 2905 2899 2893 2888 2885 2882 2878 2873 2869 2864 2861 2855 2849 2846 2845 2842 2839 2837 2834 2830 2828 2828 2825 2823 2820 2818 2816
2994 2988 2982 2977 2971 2965 2958 2951 2944 2937 2929 2922 2915 2909 2903 2897 2891 2885 2881 2875 2870 2866 2863 2861 2856 2850 2847 2843 2835 2830 2827 2826 2825 2821 2817 2814 2813 2814 2813 2809 2807 2807 2803
2984 2979 2973 2966 2961 2953 2947 2940 2933 2926 2917 2910 2903 2898 2891 2884 2877 2874 2869 2862 2855 2849 2848 2847 2843 2839 2835 2831 2824 2818 2812 2811 2807 2805 2804 2800 2798 2799 2800 2795 2794 2792 2790
2976 2970 2964 2958 2951 2945 2939 2932 2923 2914 2906 2900 2893 2886 2879 2873 2866 2862 2856 2848 2843 2836 2833 2832 2830 2827 2823 2819 2815 2808 2802 2797 2793 2790 2789 2786 2784 2784 2782 2783 2781 2779 2778
2967 2962 2956 2950 2943 2936 2929 2921 2913 2904 2896 2888 2880 2873 2867 2861 2857 2850 2843 2838 2832 2826 2821 2819 2817 2815 2811 2807 2803 2798 2792 2786 2781 2778 2775 2774 2773 2771 2769 2768 2766 2766 2766
2958 2954 2947 2941 2933 2926 2917 2910 2902 2895 2886 2877 2869 2862 2855 2850 2846 2839 2832 2826 2821 2816 2812 2809 2807 2804 2800 2796 2792 2787 2781 2775 2771 2767 2765 2763 2760 2759 2758 2756 2753 2753 2757
2948 2943 2937 2930 2922 2915 2907 2899 2891 2883 2875 2867 2860 2851 2844 2840 2836 2829 2822 2816 2811 2806 2802 2800 2797 2794 2791 2787 2782 2777 2772 2766 2762 2758 2755 2753 2751 2751 2748 2746 2746 2748 2753
2938 2933 2926 2919 2912 2904 2898 2890 2882 2876 2866 2857 2850 2843 2836 2831 2827 2821 2814 2807 2802 2797 2793 2790 2787 2784 2781 2778 2774 2768 2762 2758 2753 2749 2747 2744 2743 2743 2742 2741 2744 2748 2753
2928 2921 2914 2907 2899 2891 2883 2878 2875 2866 2858 2851 2845 2837 2831 2825 2819 2814 2807 2802 2796 2791 2786 2782 2779 2777 2773 2769 2765 2759 2754 2748 2743 2740 2738 2737 2736 2736 2736 2737 2745 2748 2752
2915 2909 2903 2896 2888 2880 2873 2864 2855 2854 2850 2843 2837 2831 2824 2818 2813 2807 2801 2795 2790 2784 2780 2776 2772 2770 2767 2764 2759 2753 2746 2741 2736 2733 2732 2731 2729 2728 2729 2734 2743 2747 2750
2905 2899 2893 2886 2877 2869 2861 2854 2847 2840 2834 2831 2829 2822 2816 2811 2806 2800 2793 2788 2784 2780 2775 2770 2767 2765 2762 2758 2753 2747 2741 2735 2730 2728 2725 2724 2723 2724 2728 2736 2743 2747 2749
2894 2888 2881 2873 2866 2858 2851 2845 2839 2833 2828 2822 2817 2814 2807 2803 2799 2793 2787 2781 2776 2773 2769 2765 2762 2760 2757 2754 2749 2743 2735 2730 2725 2722 2719 2719 2721 2725 2731 2739 2744 2745 2746
2884 2877 2870 2862 2855 2848 2842 2836 2831 2825 2820 2814 2808 2802 2797 2793 2790 2785 2780 2775 2771 2767 2763 2760 2758 2756 2753 2749 2744 2737 2730 2725 2721 2719 2719 2721 2725 2729 2735 2740 2742 2744 2746
2873 2867 2859 2852 2845 2839 2833 2827 2823 2817 2811 2805 2800 2795 2791 2785 2781 2777 2772 2769 2766 2762 2758 2755 2754 2751 2749 2745 2739 2733 2727 2722 2720 2720 2720 2724 2729 2733 2737 2741 2744 2746 2747
2861 2854 2847 2841 2834 2829 2824 2819 2814 2809 2803 2796 2791 2787 2783 2778 2774 2770 2766 2763 2760 2757 2754 2751 2750 2747 2744 2740 2735 2729 2725 2721 2720 2722 2724 2727 2732 2735 2739 2743 2745 2747 2748
2850 2843 2836 2830 2825 2821 2815 2811 2805 2799 2794 2788 2783 2778 2774 2769 2766 2763 2760 2758 2755 2752 2751 2749 2747 2744 2741 2737 2732 2727 2723 2721 2723 2725 2728 2732 2735 2738 2743 2746 2748 2748 2747
2838 2832 2826 2820 2816 2811 2806 2801 2796 2791 2785 2780 2775 2770 2766 2761 2758 2756 2754 2752 2750 2748 2747 2745 2743 2740 2737 2734 2730 2726 2723 2724 2727 2730 2731 2734 2739 2744 2747 2750 2749 2749 2749
2827 2822 2817 2812 2807 2802 2796 2791 2786 2781 2776 2771 2767 2762 2758 2754 2751 2750 2748 2747 2745 2745 2744 2742 2740 2738 2735 2732 2729 2726 2726 2729 2732 2733 2735 2740 2744 2748 2751 2751 2752 2752 2752
2818 2813 2808 2802 2798 2793 2787 2782 2777 2772 2768 2764 2760 2756 2751 2748 2746 2744 2743 2742 2742 2742 2741 2740 2738 2736 2734 2731 2729 2728 2731 2734 2736 2738 2742 2745 2749 2753 2754 2755 2756 2756 2756